Weather History for KAVK - November, 2012

Change the Weather History Date:

Friday, November 30, 2012

  Actual Average Record
Temperature  
Mean Temperature 50 °F -  
Max Temperature 57 °F 55 °F 73 °F (1973)
Min Temperature 41 °F 30 °F 10 °F (1952)
Degree Days  
Heating Degree Days 16    
Moisture  
Dew Point 46 °F    
Average Humidity 87    
Maximum Humidity 100    
Minimum Humidity 72    
Precipitation  
Precipitation 0.00 in - - ()
Sea Level Pressure  
Sea Level Pressure 29.94 in    
Wind  
Wind Speed 7 mph (SE)    
Max Wind Speed 9 mph    
Max Gust Speed -    
Visibility 6 miles    
Events Fog    
Averages and records for this station are not official NWS values.
T = Trace of Precipitation, MM = Missing Value Source: NWS Daily Summary

Daily Weather History Graph

Daily Weather History Graph

Search for Another Location

Airport or City:

Trip Planner

Search our weather history database for the weather conditions in past years. The results will help you decide how hot, cold, wet, or windy it might be!

Date:

Astronomy

Nov. 30, 2012 Rise Set
Actual Time 7:28 AM CST 5:18 PM CST
Civil Twilight 6:59 AM CST 5:47 PM CST
Nautical Twilight 6:27 AM CST 6:19 PM CST
Astronomical Twilight 5:56 AM CST 6:50 PM CST
Moon 7:14 PM CST (11/30) 9:01 AM CST (11/30)
Length of Visible Light 10h 47m
Length of Day
9h 50m
Waning Gibbous, 96% of the Moon is Illuminated
Nov 30
Waning Gibbous
Dec 6
Last Quarter
Dec 13
New
Dec 19
First Quarter
Dec 28
Full

Hourly Weather History & Observations

Time (CST) Temp. Windchill Dew Point Humidity Pressure Visibility Wind Dir Wind Speed Gust Speed Precip Events Conditions
5:15 PM 57.2 °F - 48.2 °F 72% 29.96 in 8.0 mi SSE 6.9 mph - N/A   Clear
5:35 PM 55.4 °F - 46.4 °F 72% 29.96 in 10.0 mi SSE 5.8 mph - N/A   Clear
5:55 PM 55.4 °F - 48.2 °F 77% 29.96 in 7.0 mi SE 5.8 mph - N/A   Clear
6:15 PM 53.6 °F - 46.4 °F 77% 29.96 in 6.0 mi ESE 5.8 mph - N/A   Haze
6:35 PM 51.8 °F - 46.4 °F 82% 29.96 in 7.0 mi SE 6.9 mph - N/A   Overcast
6:55 PM 51.8 °F - 46.4 °F 82% 29.96 in 7.0 mi SE 8.1 mph - N/A   Overcast
7:15 PM 51.8 °F - 46.4 °F 82% 29.95 in 8.0 mi ESE 8.1 mph - N/A   Mostly Cloudy
7:35 PM 51.8 °F - 46.4 °F 82% 29.95 in 9.0 mi ESE 6.9 mph - N/A   Partly Cloudy
7:55 PM 50.0 °F - 46.4 °F 87% 29.95 in 9.0 mi ESE 6.9 mph - N/A   Clear
8:15 PM 51.8 °F - 46.4 °F 82% 29.95 in 8.0 mi ESE 8.1 mph - N/A   Clear
8:35 PM 50.0 °F - 46.4 °F 87% 29.95 in 9.0 mi East 9.2 mph - N/A   Clear
9:15 PM 50.0 °F - 46.4 °F 87% 29.94 in 6.0 mi SE 9.2 mph - N/A   Clear
9:35 PM 48.2 °F - 46.4 °F 93% 29.94 in 5.0 mi SE 6.9 mph - N/A   Clear
9:55 PM 48.2 °F - 46.4 °F 93% 29.94 in 4.0 mi SE 4.6 mph - N/A   Clear
10:15 PM 46.4 °F 42.9 °F 44.6 °F 93% 29.93 in 3.0 mi SE 6.9 mph - N/A   Clear
10:35 PM 46.4 °F 41.9 °F 46.4 °F 100% 29.93 in 2.5 mi SSE 9.2 mph - N/A   Clear
10:55 PM 44.6 °F 40.7 °F 44.6 °F 100% 29.92 in 0.2 mi SSE 6.9 mph - N/A Fog Fog
11:15 PM 42.8 °F 38.6 °F 41.0 °F 93% 29.91 in 0.2 mi South 6.9 mph - N/A Fog Fog
11:35 PM 42.8 °F 38.0 °F 42.8 °F 100% 29.91 in 0.2 mi SSE 8.1 mph - N/A Fog Fog
11:55 PM 41.0 °F 35.8 °F 41.0 °F 100% 29.90 in 0.2 mi South 8.1 mph - N/A Fog Fog